{"data":{"norad_id":52995,"intl_designator":"2022-076K","name":"STARLINK-4296","alt_names":[],"object_type":"PAYLOAD","status":"ACTIVE","operator":null,"country":"US","launch_date":"2022-07-07","launch_site_code":"AFETR","launch_vehicle":null,"mission":null,"orbit_class":"UNKNOWN","rcs_meters":null,"size_class":null,"mass_kg":null,"dimensions":null,"purposes":["comms"],"wikipedia_slug":null,"has_3d_model":false,"image_url":null,"decayed_at":null,"tle_current":{"epoch":"2026-05-25T04:48:30.741120Z","epoch_age_seconds":51103,"freshness":"FRESH","line1":"1 52995U 22076K   26145.20035580 -.00000172  00000+0  72729-5 0  9990","line2":"2 52995  53.2138 110.6476 0001801  63.0487 297.0689 15.08839805214394","mean_motion":15.08839805,"eccentricity":0.0001801,"inclination_deg":53.2138,"raan_deg":110.6476,"arg_perigee_deg":63.0487,"mean_anomaly_deg":297.0689,"bstar":7.2729e-6,"rev_number":21439,"period_min":95.43756701196,"perigee_km":538.49807463576,"apogee_km":540.98989536656,"semimajor_km":6917.8809850012,"source":"CELESTRAK","updated_at":"2026-05-25T13:38:17.275183Z"}}}